• In India
  • List of Countries
  • For 7 days
  • Water Temperature
  • Satellite Maps
  • Weather Map
  • Weather Widgets
  • user-avatar
    Login

    Hourly Weather Zalyaddya

    Today, 18 November, Sunday

    Time Temperature Precipitation Wind Pressure Humidity
    00:00 -3°C° 0 mm 1 mps 759 mmHg 51%
    01:00 -3°C° 0 mm 1 mps 759 mmHg 53%
    02:00 -6°C° 0 mm 2 mps 758 mmHg 60%
    03:00 -6°C° 0 mm 2 mps 757 mmHg 62%
    04:00 -6°C° 0 mm 2 mps 757 mmHg 64%
    05:00 -7°C° 0 mm 2 mps 756 mmHg 66%
    06:00 -7°C° 0 mm 3 mps 755 mmHg 66%
    07:00 -7°C° 0 mm 3 mps 755 mmHg 67%
    08:00 -7°C° 0 mm 3 mps 755 mmHg 67%
    09:00 -6°C° 0 mm 3 mps 754 mmHg 66%
    10:00 -5°C° 0 mm 3 mps 754 mmHg 65%
    11:00 -4°C° 0 mm 3 mps 754 mmHg 63%
    12:00 -4°C° 0 mm 3 mps 753 mmHg 66%
    13:00 -2°C° 0 mm 2 mps 753 mmHg 68%
    14:00 -2°C° 0 mm 2 mps 753 mmHg 70%
    15:00 -3°C° 0 mm 2 mps 753 mmHg 74%
    16:00 -4°C° 0 mm 2 mps 753 mmHg 78%
    17:00 -3°C° 0 mm 1 mps 753 mmHg 82%
    18:00 -3°C° 0 mm 1 mps 753 mmHg 82%
    19:00 -3°C° 0 mm 1 mps 753 mmHg 82%
    20:00 -3°C° 0 mm 1 mps 753 mmHg 82%
    21:00 -3°C° 0 mm 1 mps 753 mmHg 82%
    22:00 -4°C° 0 mm 0 mps 753 mmHg 82%
    23:00 -4°C° 0 mm 0 mps 754 mmHg 82%

    Tomorrow, 19 November, Monday

    Time Temperature Precipitation Wind Pressure Humidity
    00:00 -4°C° 0 mm 0 mps 754 mmHg 82%
    01:00 -4°C° 0 mm 1 mps 754 mmHg 82%
    02:00 -4°C° 0 mm 1 mps 754 mmHg 83%
    03:00 -4°C° 0 mm 1 mps 754 mmHg 82%
    04:00 -4°C° 0 mm 1 mps 754 mmHg 82%
    05:00 -4°C° 0 mm 1 mps 754 mmHg 81%
    06:00 -4°C° 0 mm 1 mps 754 mmHg 81%
    07:00 -4°C° 0 mm 1 mps 754 mmHg 80%
    08:00 -6°C° 0 mm 2 mps 755 mmHg 80%
    09:00 -4°C° 0 mm 2 mps 755 mmHg 75%
    10:00 -3°C° 0 mm 2 mps 755 mmHg 71%
    11:00 -2°C° 0 mm 3 mps 755 mmHg 67%
    12:00 -2°C° 0 mm 3 mps 755 mmHg 67%
    13:00 -1°C° 0 mm 3 mps 755 mmHg 67%
    14:00 -1°C° 0 mm 3 mps 755 mmHg 67%
    15:00 -2°C° 0 mm 3 mps 755 mmHg 70%
    16:00 -4°C° 0 mm 3 mps 755 mmHg 73%
    17:00 -5°C° 0 mm 3 mps 755 mmHg 76%
    18:00 -5°C° 0 mm 4 mps 755 mmHg 76%
    19:00 -5°C° 0 mm 4 mps 755 mmHg 77%
    20:00 -5°C° 0 mm 4 mps 755 mmHg 77%
    21:00 -4°C° 0 mm 4 mps 755 mmHg 79%
    22:00 -4°C° 0 mm 4 mps 755 mmHg 81%
    23:00 -4°C° 0 mm 4 mps 755 mmHg 83%

    Day after tomorrow, 20 November, Tuesday

    Time Temperature Precipitation Wind Pressure Humidity
    00:00 -4°C° 0 mm 4 mps 755 mmHg 85%
    01:00 -4°C° 0 mm 4 mps 755 mmHg 87%
    02:00 -4°C° 0 mm 4 mps 755 mmHg 89%
    03:00 -4°C° 0 mm 4 mps 755 mmHg 90%
    04:00 -4°C° 0 mm 4 mps 755 mmHg 91%
    05:00 -4°C° 0 mm 4 mps 755 mmHg 92%
    06:00 -4°C° 0 mm 4 mps 755 mmHg 92%
    07:00 -4°C° 0 mm 4 mps 755 mmHg 92%
    08:00 -5°C° 0 mm 5 mps 755 mmHg 91%
    09:00 -4°C° 0 mm 5 mps 755 mmHg 88%
    10:00 -2°C° 0 mm 5 mps 755 mmHg 85%
    11:00 -2°C° 0 mm 5 mps 755 mmHg 82%
    12:00 -1°C° 0 mm 5 mps 755 mmHg 81%
    13:00 -1°C° 0 mm 4 mps 755 mmHg 80%
    14:00 -1°C° 0 mm 4 mps 755 mmHg 79%
    15:00 -1°C° 0 mm 3 mps 755 mmHg 82%
    16:00 -2°C° 0 mm 3 mps 756 mmHg 85%
    17:00 -2°C° 0 mm 3 mps 756 mmHg 88%
    18:00 -3°C° 0 mm 2 mps 756 mmHg 88%
    19:00 -3°C° 0 mm 2 mps 756 mmHg 89%
    20:00 -3°C° 0 mm 2 mps 756 mmHg 90%
    21:00 -4°C° 0 mm 2 mps 756 mmHg 91%
    22:00 -4°C° 0 mm 2 mps 756 mmHg 91%
    23:00 -4°C° 0 mm 2 mps 756 mmHg 91%

    21 November, Wednesday

    Time Temperature Precipitation Wind Pressure Humidity
    00:00 -4°C° 0 mm 2 mps 756 mmHg 91%
    01:00 -4°C° 0 mm 2 mps 756 mmHg 90%
    02:00 -4°C° 0 mm 2 mps 756 mmHg 90%
    03:00 -4°C° 0 mm 2 mps 756 mmHg 89%
    04:00 -3°C° 0 mm 2 mps 757 mmHg 88%
    05:00 -3°C° 0 mm 2 mps 757 mmHg 87%
    06:00 -3°C° 0 mm 2 mps 757 mmHg 87%
    07:00 -3°C° 0 mm 2 mps 757 mmHg 86%
    08:00 -3°C° 0 mm 2 mps 757 mmHg 85%
    09:00 -2°C° 0 mm 2 mps 757 mmHg 80%
    10:00 -1°C° 0 mm 2 mps 757 mmHg 75%
    11:00 -1°C° 0 mm 2 mps 757 mmHg 70%
    12:00 -1°C° 0 mm 2 mps 757 mmHg 70%
    13:00 -1°C° 0 mm 2 mps 757 mmHg 69%
    14:00 -1°C° 0 mm 2 mps 756 mmHg 69%
    15:00 -2°C° 0 mm 2 mps 756 mmHg 74%
    16:00 -3°C° 0 mm 2 mps 756 mmHg 78%
    17:00 -4°C° 0 mm 2 mps 756 mmHg 82%
    18:00 -4°C° 0 mm 2 mps 756 mmHg 84%
    19:00 -4°C° 0 mm 2 mps 756 mmHg 85%
    20:00 -4°C° 0 mm 2 mps 756 mmHg 87%
    21:00 -3°C° 0 mm 1 mps 756 mmHg 88%
    22:00 -3°C° 0 mm 1 mps 756 mmHg 89%
    23:00 -3°C° 0 mm 1 mps 756 mmHg 90%

    22 November, Thursday

    Time Temperature Precipitation Wind Pressure Humidity
    00:00 -5°C° 0 mm 2 mps 756 mmHg 91%
    01:00 -5°C° 0 mm 2 mps 756 mmHg 91%
    02:00 -5°C° 0 mm 2 mps 756 mmHg 92%
    03:00 -5°C° 0 mm 2 mps 756 mmHg 92%
    04:00 -5°C° 0 mm 2 mps 756 mmHg 92%
    05:00 -6°C° 0 mm 2 mps 756 mmHg 93%
    06:00 -5°C° 0 mm 2 mps 756 mmHg 92%
    07:00 -5°C° 0 mm 2 mps 756 mmHg 92%
    08:00 -5°C° 0 mm 2 mps 756 mmHg 91%
    09:00 -4°C° 0 mm 2 mps 756 mmHg 85%
    10:00 -3°C° 0 mm 2 mps 757 mmHg 80%
    11:00 -2°C° 0 mm 2 mps 757 mmHg 74%
    12:00 -2°C° 0 mm 2 mps 757 mmHg 74%
    13:00 -2°C° 0 mm 2 mps 756 mmHg 74%
    14:00 -1°C° 0 mm 2 mps 756 mmHg 75%
    15:00 -2°C° 0 mm 3 mps 756 mmHg 80%
    16:00 -4°C° 0 mm 3 mps 756 mmHg 85%
    17:00 -5°C° 0 mm 3 mps 756 mmHg 90%
    18:00 -6°C° 0 mm 3 mps 756 mmHg 91%
    19:00 -6°C° 0 mm 3 mps 756 mmHg 92%
    20:00 -6°C° 0 mm 3 mps 757 mmHg 93%
    21:00 -6°C° 0 mm 3 mps 757 mmHg 93%
    22:00 -5°C° 0 mm 2 mps 757 mmHg 94%
    23:00 -5°C° 0 mm 2 mps 757 mmHg 95%

    23 November, Friday

    Time Temperature Precipitation Wind Pressure Humidity
    00:00 -6°C° 0 mm 2 mps 757 mmHg 95%
    01:00 -6°C° 0 mm 2 mps 758 mmHg 95%
    02:00 -6°C° 0 mm 2 mps 758 mmHg 96%
    03:00 -6°C° 0 mm 2 mps 758 mmHg 96%
    04:00 -6°C° 0 mm 2 mps 758 mmHg 96%
    05:00 -6°C° 0 mm 2 mps 758 mmHg 96%
    06:00 -6°C° 0 mm 2 mps 758 mmHg 95%
    07:00 -4°C° 0 mm 1 mps 759 mmHg 95%
    08:00 -4°C° 0 mm 1 mps 759 mmHg 95%
    09:00 -3°C° 0 mm 1 mps 759 mmHg 91%
    10:00 -2°C° 0 mm 1 mps 759 mmHg 87%
    11:00 -2°C° 0 mm 0 mps 759 mmHg 83%
    12:00 -2°C° 0 mm 0 mps 759 mmHg 82%
    13:00 -1°C° 0 mm 0 mps 759 mmHg 81%
    14:00 -1°C° 0 mm 0 mps 759 mmHg 80%
    15:00 -2°C° 0 mm 0 mps 758 mmHg 84%
    16:00 -2°C° 0 mm 1 mps 758 mmHg 87%
    17:00 -3°C° 0 mm 1 mps 758 mmHg 91%
    18:00 -3°C° 0 mm 1 mps 758 mmHg 92%
    19:00 -3°C° 0 mm 1 mps 758 mmHg 92%
    20:00 -3°C° 0 mm 1 mps 758 mmHg 93%
    21:00 -4°C° 0 mm 1 mps 757 mmHg 93%
    22:00 -6°C° 0 mm 2 mps 757 mmHg 93%
    23:00 -6°C° 0 mm 2 mps 757 mmHg 94%
    Show more